sat.trackr.live / text

‹ back to catalog

STARLINK-35765

NORAD 67041 · 2025-294M

PAYLOAD ACTIVE UNKNOWN

§ Identity

Operator
Country
US
Launch date
2025-12-11
Launch site
AFETR
Launch vehicle
Mass (kg)
RCS (m²)

Purposes: comms

External: N2YO · Heavens-Above · Gunter

§ Orbital elements

Epoch: 2026-05-24T21:33:11.107008Z

Period
94.26 min
Inclination
42.9995°
Eccentricity
0.0000827
Mean motion
15.27622042 rev/d
Perigee alt
482.4 km
Apogee alt
483.5 km
Semi-major
6,861.1 km
B*
8.4550e-4
RAAN
327.7506°
Arg perigee
297.4257°
Mean anomaly
62.6511°
Rev number
2,645

§ Raw data

STARLINK-357651 67041U 25294M   26144.89804522  .00023107  00000+0  84550-3 0  99922 67041  42.9995 327.7506 0000827 297.4257  62.6511 15.27622042 26450

JSON: /api/v1/satellites/67041 · /tle

For live sub-satellite position, see the globe view (requires WebGL).

§ Visibility from observer

Set your observer location to see the next 7 days of passes ≥ 10°. The values pass through the URL so the page stays shareable.

No JS? Fill the form by hand. The geolocation button needs JavaScript.